Overview Statistics Trail Chart Weather Telemetry Raw packets
 

This is the latest recevied weather packets stored in our database for station/object HA2SKA-1. If no packets are shown the sender has not sent any weather packets the latest 10 day(s).

<< 14 15 16 17 18 19 20 >>
Time Temp. Humidity Pressure Rain* Wind** Luminosity Snow
1788312010 20° C 100% 1023.1 hPa - - - -
1788311110 18.89° C 100% 1023 hPa - - - -
1788310209 21.11° C 97% 1022.9 hPa - - - -
1788309309 18.89° C 100% 1023.1 hPa - - - -
1788308409 18.89° C 100% 1023.1 hPa - - - -
1788307509 18.89° C 100% 1023 hPa - - - -
1788306609 19.44° C 100% 1023.1 hPa - - - -
1788305709 20° C 100% 1023.1 hPa - - - -
1788304809 18.89° C 100% 1023 hPa - - - -
1788303908 20.56° C 100% 1023.1 hPa - - - -
1788303008 19.44° C 100% 1023 hPa - - - -
1788302108 21.67° C 89% 1023 hPa - - - -
1788301208 22.22° C 86% 1023 hPa - - - -
1788300308 21.67° C 90% 1023 hPa - - - -
1788299408 20.56° C 100% 1023 hPa - - - -
1788298508 20.56° C 100% 1022.9 hPa - - - -
1788297607 21.67° C 94% 1022.7 hPa - - - -
1788296707 21.67° C 96% 1022.8 hPa - - - -
1788295807 20.56° C 100% 1022.6 hPa - - - -
1788294907 22.22° C 86% 1022.6 hPa - - - -
1788294007 22.22° C 86% 1022.7 hPa - - - -
1788293107 21.67° C 92% 1022.5 hPa - - - -
1788292207 21.11° C 96% 1022.5 hPa - - - -
1788291307 22.22° C 85% 1022.6 hPa - - - -
1788290407 21.11° C 97% 1022.6 hPa - - - -

* Rain since midnight (hover to see other rain measurements)
** Current wind speed in m/s (hover to see current wind gust speed)